Wind_Speed
20 20 20 20 19 14 12 12 11 11 10 10 9 9 9 9 9 9 9 9 9 8 8 8 8 7 7 7 6 6 6 6 6 8 9 9 9 9 9 9 9 10 10 10 10 10 10 10 10
19 18 19 20 15 12 12 12 11 11 10 10 10 10 9 9 9 9 9 9 9 8 8 8 8 7 7 7 7 6 6 6 6 7 8 9 10 10 10 10 9 10 9 10 9 9 10 10 10
19 18 21 17 12 11 11 11 11 11 10 10 10 9 9 9 9 9 8 9 9 8 8 7 7 7 7 6 6 6 6 6 6 7 8 8 9 9 9 9 9 9 9 9 10 9 10 9 9
19 22 18 12 11 11 11 11 11 11 11 10 10 10 10 10 10 9 9 9 9 8 8 8 7 7 7 7 6 6 6 7 6 6 6 7 8 8 8 8 8 8 8 9 9 9 9 8 8
22 20 13 10 10 11 11 11 12 12 11 11 11 11 10 10 10 10 10 10 9 8 8 8 7 7 7 7 6 6 6 6 6 6 6 6 7 7 7 7 8 7 8 8 8 8 8 8 7
21 14 10 8 9 10 11 11 12 12 12 13 12 12 11 11 11 10 10 10 9 9 8 7 7 7 6 6 6 5 5 6 6 6 6 6 6 7 7 6 7 7 7 7 7 7 7 7 7
18 12 8 7 8 9 9 10 12 13 13 14 14 14 12 12 11 11 11 10 9 9 8 7 7 6 6 6 5 5 5 5 5 6 6 6 6 6 6 6 6 5 5 5 6 6 6 6 6
14 11 7 6 7 8 9 9 12 14 14 15 16 15 14 13 12 12 12 11 10 10 9 7 7 7 6 6 5 4 4 4 4 4 5 5 5 5 5 5 5 5 4 4 5 5 6 6 6
12 10 7 5 7 7 8 9 11 13 14 15 15 15 14 14 13 12 12 12 11 11 9 8 7 7 7 6 6 5 4 3 4 3 4 4 4 3 4 4 4 4 4 4 4 4 5 5 5
8 7 6 5 5 7 9 10 11 11 13 15 15 15 15 14 15 14 13 13 12 11 10 9 8 8 7 7 6 5 4 4 3 3 3 3 3 3 3 3 3 3 3 3 3 3 4 4 4
6 6 5 5 5 8 9 11 12 12 13 14 15 15 15 15 15 15 14 13 13 12 11 11 10 9 8 7 7 6 5 5 4 4 3 3 3 3 3 3 2 2 2 2 3 3 2 3 3
5 4 5 5 6 7 8 9 10 11 12 13 14 15 16 15 16 15 15 14 13 13 12 11 11 10 9 8 8 7 7 6 6 4 3 3 3 3 3 3 1 1 1 2 3 3 2 2 2
4 3 4 5 6 6 7 9 10 11 12 12 13 15 16 16 16 16 15 15 14 14 13 12 12 11 10 9 9 8 8 7 6 5 4 3 3 3 2 3 2 1 1 2 3 3 3 3 3
2 3 4 5 6 6 7 9 10 11 12 12 13 15 16 16 16 15 15 15 14 14 14 13 11 12 11 11 10 9 8 8 7 5 5 4 3 2 2 2 2 1 0 1 2 3 3 3 3
4 3 1 3 5 5 7 7 10 12 12 13 13 15 15 15 16 15 14 14 14 14 14 14 12 11 12 12 11 10 8 8 7 6 5 4 3 3 2 2 2 1 1 1 2 3 4 4 4
4 4 2 2 3 5 5 6 9 10 12 13 14 14 15 15 15 14 14 14 14 14 14 14 13 13 12 12 11 10 9 8 7 6 5 4 4 3 3 3 3 2 2 3 3 3 4 5 5
5 5 4 2 2 3 4 5 9 10 11 13 13 14 14 14 14 14 13 14 13 13 14 14 14 13 12 12 11 11 10 10 8 7 5 5 5 4 4 3 4 3 3 3 4 4 5 6 6
7 6 6 4 3 3 4 5 8 10 11 13 13 14 14 14 14 14 13 13 13 13 14 14 14 13 12 13 13 12 11 10 8 7 6 5 6 6 5 5 5 4 4 5 5 6 6 6 6
9 7 6 6 7 5 6 5 6 10 12 13 13 14 14 14 13 13 13 13 13 14 14 14 14 13 13 13 13 13 12 10 9 7 6 6 6 6 6 6 6 6 6 6 6 6 7 7 7
11 9 8 8 8 5 7 7 7 7 10 13 13 13 13 13 13 13 12 13 13 13 13 14 14 14 13 13 13 13 13 11 10 8 7 7 7 6 7 7 8 7 7 6 6 6 7 8 8
12 11 11 10 8 6 7 9 11 8 8 11 13 13 12 12 12 12 12 12 12 13 13 13 14 13 14 14 14 14 12 11 10 9 8 8 7 7 8 8 8 7 7 6 6 6 7 8 9
13 14 14 12 8 7 8 12 14 10 7 10 12 12 12 11 12 12 12 12 12 12 12 13 13 13 13 14 14 13 12 12 11 10 9 9 8 8 8 9 8 8 7 7 7 7 7 8 9
15 16 15 12 9 9 8 12 15 12 8 10 11 12 12 11 11 12 12 12 12 12 12 13 13 13 13 14 13 12 12 12 11 10 10 9 9 9 8 9 10 9 8 8 8 8 8 8 9
18 16 13 10 10 11 9 11 14 12 9 11 12 12 11 11 12 11 11 11 12 12 12 13 13 13 13 13 13 12 12 11 11 10 10 10 10 10 9 9 9 9 9 9 9 9 9 9 9
20 16 13 12 12 13 12 11 14 12 13 13 13 11 11 10 11 11 11 10 11 12 13 13 13 13 13 12 13 12 11 10 11 11 10 10 10 10 10 10 10 10 10 10 10 10 10 9 10
21 20 17 14 12 12 11 11 14 13 14 13 12 11 11 11 10 10 10 10 11 11 12 13 13 13 13 13 12 12 11 11 11 11 10 10 10 11 11 11 11 11 11 12 12 11 11 11 11
21 21 18 16 14 13 11 13 14 14 13 13 12 10 11 10 10 10 10 10 11 11 12 13 13 12 12 12 13 13 12 11 12 12 11 11 11 11 12 12 12 12 13 13 13 12 12 12 12
24 21 20 20 18 15 12 13 15 15 14 14 12 11 11 10 10 11 10 10 11 11 12 13 12 12 12 12 12 13 12 12 12 11 11 11 12 12 13 13 13 13 13 14 14 14 14 13 13
25 25 24 22 20 17 14 15 17 16 15 15 14 12 11 10 9 11 11 11 11 12 12 12 12 12 12 11 12 12 12 13 12 12 12 12 13 13 14 14 14 15 14 14 15 15 14 13 13
25 25 25 25 23 20 18 17 16 16 15 16 15 14 11 11 11 12 12 11 11 11 11 12 12 12 12 12 13 13 12 13 13 12 13 13 14 14 14 15 15 15 15 15 15 15 14 14 14
Wind_Direction
72 68 67 62 55 51 52 56 54 53 54 51 49 47 47 46 44 46 49 52 53 51 49 51 48 45 45 47 51 55 59 64 80 97 105 106 107 110 111 106 105 103 107 110 106 104 104 105 107
73 68 64 59 58 45 46 48 49 49 49 47 45 45 46 46 46 46 47 49 51 50 49 51 46 42 44 45 47 52 56 62 73 94 101 104 101 104 104 102 104 103 102 104 103 103 106 105 107
78 67 59 54 49 41 42 43 44 43 42 42 41 41 42 43 44 46 46 47 49 50 49 48 43 41 44 45 46 51 59 66 75 86 91 92 93 96 97 98 99 102 101 104 101 100 104 104 103
75 63 54 46 45 44 41 40 39 41 37 36 38 38 38 40 42 44 44 45 47 49 50 48 45 43 43 45 49 54 58 65 74 82 88 90 92 94 96 97 97 98 100 102 101 99 103 104 104
71 65 50 34 30 41 38 37 38 40 37 36 39 40 39 39 41 43 42 42 43 45 47 47 45 42 42 47 50 53 57 63 72 80 85 88 91 93 100 98 98 99 102 103 105 103 105 103 103
74 67 47 33 27 38 40 35 35 39 36 37 39 40 38 38 40 41 41 41 42 43 44 42 40 38 39 43 46 48 53 62 70 78 85 88 92 96 101 105 102 101 102 105 109 109 109 108 107
81 73 50 25 13 32 36 35 34 38 35 35 38 37 36 37 39 40 38 37 39 40 41 38 37 36 36 38 44 49 57 60 67 75 85 89 92 96 99 103 106 107 109 111 111 111 113 112 112
86 85 68 23 15 22 29 34 36 36 35 34 34 34 36 37 37 38 38 37 37 36 38 38 39 39 35 34 42 47 55 61 67 70 77 86 90 95 102 103 108 109 111 116 117 116 113 112 113
78 84 81 48 23 22 29 31 32 33 34 34 33 35 36 37 37 37 38 39 39 38 38 38 38 38 34 30 30 39 54 59 58 65 73 81 85 86 100 107 112 112 114 118 122 122 119 120 118
75 89 80 58 36 32 32 33 32 25 32 34 35 36 38 37 37 35 37 39 39 38 38 34 35 33 32 28 27 35 41 42 46 55 65 71 75 81 93 105 119 119 119 124 130 132 128 130 127
80 91 88 69 52 47 39 35 32 28 31 32 35 37 39 39 38 36 35 36 37 38 36 34 34 31 30 32 32 33 37 38 38 37 40 42 46 65 78 88 110 132 135 144 155 160 149 139 137
77 75 78 70 65 56 44 37 31 30 30 32 37 38 38 38 37 36 35 34 35 35 37 37 37 33 36 35 33 31 32 30 28 25 26 30 29 48 60 60 57 133 170 170 179 193 205 183 168
81 78 74 62 57 58 55 40 30 29 29 32 35 35 35 35 36 35 35 34 34 34 36 40 38 36 34 33 29 26 25 23 25 27 21 16 20 38 43 47 47 36 203 204 205 205 220 216 202
151 99 70 53 42 37 46 42 28 27 27 29 32 33 32 31 33 33 32 34 35 34 33 34 35 35 32 32 30 25 24 24 22 17 14 12 18 22 16 13 14 357 276 217 216 220 232 225 228
149 132 105 29 26 20 30 30 22 26 24 27 30 30 28 27 29 30 30 31 32 31 31 31 29 30 31 30 26 24 24 19 17 12 5 4 4 5 352 339 333 325 305 265 234 226 233 240 240
165 175 182 324 6 357 12 7 11 22 19 22 26 28 27 25 24 26 28 28 29 28 26 26 27 25 26 26 25 22 18 14 13 13 4 358 354 352 344 334 323 304 280 277 269 251 247 244 245
204 228 215 227 322 327 335 353 354 7 11 15 18 22 23 22 21 23 24 24 25 23 21 19 19 19 18 19 19 17 13 13 17 18 12 3 353 350 348 340 329 309 296 287 281 273 266 256 254
204 223 231 221 268 285 301 325 342 352 -0 6 9 14 16 17 16 18 21 21 22 20 16 16 19 21 20 17 16 14 11 9 12 12 11 5 356 352 349 341 331 321 306 298 293 286 280 270 264
210 212 230 236 252 258 281 294 327 341 351 356 0 6 9 12 11 14 17 18 19 19 19 20 18 19 17 13 12 12 8 7 7 5 5 357 352 347 346 342 332 326 319 313 299 290 286 280 272
206 208 229 239 252 246 270 289 292 314 341 346 351 358 2 7 11 12 12 12 14 16 17 16 16 14 12 9 9 10 11 12 12 7 1 353 351 350 349 346 340 334 324 314 310 304 289 284 281
220 219 227 234 244 249 267 283 282 281 326 337 343 350 356 2 8 8 6 8 10 12 12 10 8 7 7 4 5 11 16 14 11 8 3 357 352 347 345 343 339 335 334 329 322 316 303 293 287
226 229 225 228 231 236 257 270 284 291 311 330 340 344 347 356 2 3 2 5 8 8 8 5 3 4 4 3 4 10 12 9 6 4 1 355 352 347 344 341 338 333 328 327 325 320 311 300 295
223 232 231 232 231 232 238 262 275 283 291 313 329 335 337 345 356 359 359 3 4 3 1 0 359 0 1 359 1 4 5 3 1 359 357 357 359 353 345 340 341 336 328 327 325 321 315 309 301
224 229 228 227 233 247 242 252 276 286 287 298 311 322 329 336 343 351 354 357 358 358 359 359 357 357 358 357 358 359 359 360 360 0 357 356 360 358 351 348 344 339 336 335 332 328 320 313 306
220 219 220 232 240 247 241 241 259 271 285 293 301 307 315 324 332 341 347 349 353 354 356 356 356 357 357 355 356 357 356 359 1 1 360 358 359 359 357 354 351 347 343 338 332 326 320 314 309
221 213 217 230 247 254 247 240 246 258 276 285 290 295 304 312 321 330 338 342 346 348 350 351 351 351 352 355 356 355 353 356 357 357 356 355 355 355 354 351 347 344 339 334 330 325 321 318 314
220 216 218 234 247 255 250 250 259 261 269 275 276 283 293 306 311 318 326 334 339 342 345 346 346 348 351 355 354 352 351 350 351 352 352 351 351 349 347 344 341 338 335 333 330 326 321 317 314
213 218 219 225 233 244 253 260 256 260 269 274 276 280 286 294 302 309 317 323 329 335 340 343 345 345 348 351 352 351 351 350 351 350 347 346 346 343 341 340 339 336 334 333 331 329 324 321 318
217 215 216 221 225 233 247 256 255 253 265 274 275 274 281 287 296 305 309 315 321 327 333 338 340 340 342 344 346 347 348 346 343 345 343 342 341 340 338 336 335 336 334 333 333 331 326 323 320
221 223 220 222 223 223 234 251 252 257 261 266 268 269 273 279 287 295 302 308 315 321 327 332 336 336 338 339 340 342 346 348 347 344 342 340 337 335 333 332 331 331 332 331 330 331 330 327 324
Height
5905 5904 5903 5902 5903 5903 5902 5901 5899 5898 5897 5896 5895 5893 5892 5891 5891 5892 5888 5887 5887 5886 5885 5885 5884 5884 5883 5882 5881 5881 5880 5879 5879 5878 5878 5878 5878 5879 5879 5879 5880 5880 5880 5881 5882 5883 5883 5884 5885
5908 5908 5906 5905 5907 5906 5905 5904 5902 5901 5900 5898 5896 5896 5894 5893 5892 5891 5889 5889 5888 5887 5887 5886 5886 5885 5885 5884 5883 5882 5882 5881 5881 5880 5880 5880 5880 5881 5881 5881 5882 5882 5883 5883 5884 5885 5885 5886 5887
5911 5910 5908 5911 5910 5909 5908 5907 5905 5903 5902 5900 5899 5898 5896 5895 5894 5892 5891 5890 5890 5889 5888 5888 5887 5887 5886 5886 5885 5884 5883 5883 5883 5882 5882 5882 5882 5883 5883 5883 5884 5884 5884 5885 5886 5886 5887 5888 5888
5912 5912 5915 5916 5914 5912 5911 5909 5907 5906 5904 5902 5901 5899 5897 5896 5895 5894 5893 5892 5891 5891 5890 5889 5889 5888 5888 5887 5886 5886 5885 5885 5885 5884 5884 5884 5885 5885 5885 5885 5886 5886 5886 5887 5887 5888 5889 5889 5890
5913 5916 5920 5919 5916 5915 5913 5911 5910 5908 5906 5904 5903 5901 5899 5898 5897 5895 5894 5894 5893 5892 5891 5891 5890 5890 5889 5889 5888 5887 5887 5887 5886 5886 5886 5886 5886 5887 5887 5887 5887 5888 5888 5888 5889 5890 5890 5891 5891
5917 5922 5924 5922 5920 5918 5916 5914 5912 5911 5908 5907 5905 5903 5901 5900 5899 5897 5896 5895 5894 5894 5893 5892 5892 5891 5891 5890 5890 5889 5889 5888 5888 5888 5888 5888 5888 5888 5888 5889 5889 5889 5890 5890 5891 5891 5892 5892 5893
5922 5925 5926 5925 5922 5921 5919 5917 5915 5913 5911 5909 5907 5905 5903 5902 5901 5899 5898 5897 5896 5895 5894 5894 5893 5892 5892 5892 5891 5891 5890 5890 5890 5890 5889 5889 5889 5889 5890 5890 5890 5891 5891 5891 5892 5892 5893 5893 5894
5926 5928 5929 5927 5925 5923 5921 5919 5917 5915 5914 5911 5909 5907 5906 5904 5902 5901 5900 5898 5897 5896 5896 5895 5894 5893 5893 5893 5893 5892 5892 5892 5891 5891 5891 5891 5890 5890 5891 5891 5891 5892 5892 5893 5893 5894 5894 5894 5895
5929 5931 5930 5929 5927 5925 5923 5921 5919 5917 5916 5914 5912 5910 5908 5906 5904 5903 5902 5900 5899 5898 5898 5897 5896 5895 5895 5894 5894 5893 5893 5893 5893 5892 5892 5892 5892 5892 5892 5892 5892 5893 5893 5894 5894 5895 5895 5895 5896
5932 5932 5932 5931 5929 5927 5925 5923 5921 5918 5917 5916 5914 5912 5910 5908 5906 5905 5904 5902 5901 5900 5899 5899 5898 5897 5896 5896 5895 5895 5895 5894 5894 5894 5893 5893 5893 5893 5893 5893 5893 5893 5894 5894 5895 5895 5895 5896 5896
5933 5933 5933 5932 5930 5928 5927 5925 5923 5921 5920 5918 5916 5914 5912 5910 5909 5907 5906 5904 5903 5902 5901 5900 5899 5898 5898 5897 5897 5896 5896 5895 5895 5895 5895 5894 5894 5894 5894 5894 5894 5894 5895 5895 5896 5896 5896 5896 5897
5935 5934 5934 5933 5932 5930 5929 5928 5926 5924 5923 5921 5919 5917 5915 5913 5911 5909 5908 5906 5905 5904 5903 5902 5901 5900 5899 5899 5898 5898 5897 5897 5896 5896 5896 5895 5895 5895 5895 5895 5895 5895 5895 5895 5896 5896 5896 5897 5897
5936 5935 5935 5934 5933 5932 5930 5930 5928 5926 5924 5923 5921 5919 5917 5915 5913 5912 5910 5909 5907 5906 5905 5904 5903 5902 5901 5900 5900 5899 5898 5897 5897 5897 5896 5896 5896 5895 5895 5895 5895 5895 5895 5895 5896 5896 5897 5898 5898
5936 5936 5936 5935 5935 5933 5931 5931 5930 5928 5926 5925 5923 5921 5919 5917 5915 5914 5912 5911 5909 5908 5907 5906 5905 5904 5903 5902 5901 5900 5899 5898 5898 5897 5897 5896 5896 5896 5895 5895 5895 5895 5895 5895 5896 5896 5897 5897 5898
5936 5937 5937 5936 5936 5935 5934 5932 5932 5930 5928 5926 5925 5923 5921 5919 5917 5916 5914 5913 5912 5910 5909 5908 5907 5905 5904 5903 5902 5901 5900 5899 5898 5897 5897 5896 5896 5896 5896 5895 5895 5895 5895 5895 5895 5896 5896 5897 5897
5938 5938 5938 5938 5937 5936 5937 5935 5933 5932 5930 5928 5926 5925 5923 5921 5919 5918 5916 5915 5913 5912 5910 5909 5908 5907 5905 5904 5903 5902 5901 5900 5898 5897 5897 5896 5896 5896 5896 5895 5895 5895 5895 5895 5895 5895 5896 5896 5896
5938 5938 5938 5939 5938 5938 5937 5936 5934 5933 5931 5930 5928 5927 5925 5923 5921 5919 5918 5916 5915 5913 5912 5910 5909 5908 5906 5905 5904 5902 5901 5900 5899 5898 5897 5897 5896 5896 5896 5895 5895 5894 5895 5895 5895 5895 5895 5895 5895
5937 5938 5939 5939 5938 5939 5938 5937 5936 5934 5932 5931 5929 5928 5926 5924 5923 5921 5919 5918 5916 5915 5913 5912 5910 5909 5907 5906 5904 5903 5901 5900 5899 5898 5898 5897 5897 5896 5895 5895 5894 5894 5894 5894 5894 5893 5893 5893 5893
5936 5938 5939 5939 5938 5940 5939 5938 5937 5935 5934 5932 5930 5928 5927 5925 5923 5922 5920 5919 5917 5916 5914 5913 5912 5910 5908 5907 5905 5903 5902 5901 5899 5898 5897 5897 5896 5896 5895 5894 5894 5893 5893 5893 5892 5892 5892 5892 5892
5934 5937 5938 5939 5938 5939 5939 5938 5936 5935 5935 5933 5931 5930 5928 5926 5924 5923 5921 5920 5918 5916 5915 5914 5913 5911 5909 5907 5905 5904 5902 5901 5900 5898 5897 5897 5896 5895 5895 5894 5893 5893 5892 5892 5891 5890 5890 5890 5890
5933 5935 5937 5937 5939 5939 5939 5938 5936 5934 5934 5933 5932 5930 5928 5927 5925 5924 5922 5921 5919 5917 5916 5915 5914 5912 5910 5908 5905 5904 5903 5901 5900 5899 5898 5897 5896 5895 5894 5894 5893 5892 5891 5891 5890 5889 5889 5889 5888
5931 5933 5934 5935 5937 5938 5939 5938 5935 5933 5933 5932 5931 5930 5929 5927 5926 5924 5923 5921 5920 5918 5917 5916 5914 5913 5911 5909 5907 5905 5903 5902 5900 5899 5898 5897 5896 5895 5894 5893 5892 5891 5890 5890 5889 5888 5887 5887 5886
5929 5930 5932 5933 5934 5936 5936 5936 5933 5931 5930 5931 5931 5930 5929 5926 5926 5925 5923 5922 5920 5919 5918 5916 5915 5913 5911 5910 5908 5906 5904 5902 5901 5899 5898 5897 5896 5895 5894 5893 5892 5891 5890 5889 5887 5886 5885 5885 5884
5925 5927 5929 5930 5932 5934 5935 5935 5932 5931 5930 5931 5930 5930 5929 5928 5926 5925 5923 5922 5921 5919 5918 5917 5915 5913 5912 5910 5908 5906 5905 5903 5901 5899 5898 5897 5896 5895 5894 5893 5891 5890 5889 5887 5886 5885 5884 5883 5882
5922 5925 5927 5929 5931 5932 5933 5933 5932 5931 5931 5931 5930 5929 5929 5927 5926 5925 5924 5922 5921 5920 5918 5916 5915 5913 5912 5910 5908 5906 5905 5903 5901 5900 5898 5897 5896 5895 5894 5892 5891 5889 5888 5886 5885 5883 5882 5881 5880
5918 5922 5925 5928 5930 5930 5930 5931 5930 5930 5931 5930 5929 5929 5928 5927 5926 5925 5924 5923 5921 5920 5918 5916 5915 5913 5911 5910 5908 5906 5905 5903 5902 5900 5899 5897 5896 5895 5893 5892 5890 5888 5887 5885 5883 5881 5880 5879 5878
5915 5918 5923 5926 5927 5927 5928 5928 5927 5928 5928 5928 5928 5927 5926 5925 5925 5924 5923 5922 5921 5919 5918 5916 5914 5913 5911 5909 5908 5906 5904 5903 5901 5900 5899 5897 5896 5894 5893 5891 5889 5887 5885 5883 5881 5879 5878 5877 5875
5910 5915 5919 5921 5924 5925 5926 5925 5924 5924 5926 5926 5926 5926 5925 5924 5923 5923 5922 5921 5920 5919 5917 5916 5914 5912 5911 5909 5908 5906 5904 5902 5901 5899 5898 5897 5895 5893 5892 5890 5888 5886 5884 5882 5879 5877 5875 5874 5873
5905 5909 5913 5916 5920 5923 5924 5925 5922 5920 5922 5923 5924 5923 5924 5923 5922 5921 5921 5920 5919 5918 5916 5915 5913 5912 5910 5909 5907 5906 5904 5902 5900 5899 5897 5896 5894 5892 5890 5889 5887 5884 5882 5880 5878 5875 5873 5871 5870
5901 5904 5909 5912 5914 5917 5920 5923 5919 5918 5919 5919 5920 5920 5921 5921 5921 5920 5919 5919 5918 5917 5916 5914 5913 5911 5910 5908 5907 5905 5903 5901 5900 5898 5896 5894 5893 5891 5889 5887 5885 5883 5880 5878 5876 5873 5871 5869 5867